GW6851 Weather Reports


time (UTC)temp
F
wind
direction
speed
knots
gust
knots
rain 1hr
in
rain 24hr
in
rain mn
in
humidity
%
barometer
mb
20260906133800 83 284 0.0 0.0 0.00 0.00 0.00 85 1012.3
20260906133255 83 284 0.0 0.0 0.00 0.00 0.00 85 1012.2
20260906132751 82 224 0.9 1.7 0.00 0.00 0.00 85 1012.1
20260906132245 82 239 0.9 0.9 0.00 0.00 0.00 86 1012.2
20260906131741 82 277 0.0 0.9 0.00 0.00 0.00 86 1012.2
20260906131236 82 192 0.9 0.9 0.00 0.00 0.00 85 1012.3
20260906130732 82 165 1.7 2.6 0.00 0.00 0.00 86 1012.4
20260906130226 81 219 0.9 0.9 0.00 0.00 0.00 87 1012.3
20260906125725 81 224 0.9 0.9 0.00 0.00 0.00 87 1012.2
20260906125224 81 170 0.9 0.9 0.00 0.00 0.00 88 1012.4
20260906124723 81 208 0.9 0.9 0.00 0.00 0.00 89 1012.4
20260906124219 80 248 0.9 0.9 0.00 0.00 0.00 90 1012.2
20260906123718 80 204 1.7 1.7 0.00 0.00 0.00 90 1012.2
20260906123214 80 273 0.0 0.9 0.00 0.00 0.00 91 1012.0
20260906122713 79 222 3.5 3.5 0.00 0.00 0.00 91 1011.9
20260906122208 79 196 3.5 3.5 0.00 0.00 0.00 92 1011.9
20260906121705 78 226 0.9 0.9 0.00 0.00 0.00 93 1012.0
20260906121200 78 237 2.6 2.6 0.00 0.00 0.00 94 1012.0
20260906120656 78 200 2.6 2.6 0.00 0.00 0.00 94 1011.8
20260906120154 78 209 0.9 0.9 0.00 0.00 0.00 94 1012.1
20260906115653 78 232 1.7 1.7 0.00 0.00 0.00 95 1012.0
20260906115149 77 192 0.9 0.9 0.00 0.00 0.00 95 1012.1
20260906114647 77 227 0.0 0.0 0.00 0.00 0.00 95 1012.5
20260906114144 77 207 0.9 0.9 0.00 0.00 0.00 95 1012.4
20260906113643 77 207 0.9 0.9 0.00 0.00 0.00 95 1012.4
20260906113143 77 197 0.0 0.9 0.00 0.00 0.00 94 1012.5
20260906112642 77 205 1.7 1.7 0.00 0.00 0.00 94 1012.2
20260906112140 77 227 0.0 0.0 0.00 0.00 0.00 94 1012.3
20260906111639 77 220 1.7 1.7 0.00 0.00 0.00 94 1012.2
20260906111134 77 233 1.7 0.9 0.00 0.00 0.00 94 1012.0
20260906110629 77 199 0.9 0.9 0.00 0.00 0.00 94 1012.0
20260906110129 77 230 2.6 2.6 0.00 0.00 0.00 95 1011.6
20260906105624 77 206 1.7 1.7 0.00 0.00 0.00 94 1011.5
20260906105120 77 221 0.9 0.9 0.00 0.00 0.00 95 1011.6
20260906104619 77 210 0.9 0.9 0.00 0.00 0.00 95 1011.5
20260906104113 77 230 0.9 0.9 0.00 0.00 0.00 95 1011.2
20260906103612 78 213 1.7 1.7 0.00 0.00 0.00 95 1011.2
20260906103107 78 238 0.9 0.9 0.00 0.00 0.00 94 1011.3
20260906102607 78 226 0.9 0.9 0.00 0.00 0.00 94 1011.2
20260906102103 78 215 0.9 0.9 0.00 0.00 0.00 94 1011.1
20260906101603 78 214 0.9 0.9 0.00 0.00 0.00 94 1011.2
20260906101102 78 214 0.9 0.9 0.00 0.00 0.00 94 1011.1
20260906100559 78 215 0.9 0.9 0.00 0.00 0.00 94 1011.2
20260906100059 78 245 0.9 0.9 0.00 0.00 0.00 93 1011.3
20260906095558 78 222 0.9 0.9 0.00 0.00 0.00 93 1011.1
20260906095054 78 202 0.0 0.0 0.00 0.00 0.00 93 1011.0
20260906094553 78 198 2.6 2.6 0.00 0.00 0.00 93 1010.9
20260906094049 78 206 0.9 1.7 0.00 0.00 0.00 92 1011.1
20260906093544 79 230 1.7 2.6 0.00 0.00 0.00 92 1011.0
20260906093039 79 175 1.7 2.6 0.00 0.00 0.00 92 1011.0
20260906092534 79 213 1.7 1.7 0.00 0.00 0.00 92 1010.8
20260906092030 79 242 3.5 3.5 0.00 0.00 0.00 92 1010.9
20260906091525 79 215 0.9 0.9 0.00 0.00 0.00 92 1010.8
20260906091022 79 208 2.6 2.6 0.00 0.00 0.00 92 1010.9
20260906090521 79 211 3.5 3.5 0.00 0.00 0.00 91 1011.0
20260906090016 79 180 1.7 1.7 0.00 0.00 0.00 91 1010.9
20260906085515 79 209 0.9 0.9 0.00 0.00 0.00 91 1010.9
20260906085016 79 245 1.7 1.7 0.00 0.00 0.00 90 1010.9
20260906084515 79 196 1.7 1.7 0.00 0.00 0.00 90 1010.7
20260906084014 79 194 0.9 0.9 0.00 0.00 0.00 90 1010.9
20260906083510 80 187 1.7 1.7 0.00 0.00 0.00 90 1010.9
20260906083009 80 199 0.9 0.9 0.00 0.00 0.00 90 1010.8
20260906082505 80 202 1.7 0.9 0.00 0.00 0.00 90 1011.0
20260906082000 80 199 0.0 0.0 0.00 0.00 0.00 90 1010.7
20260906081456 80 199 0.0 0.0 0.00 0.00 0.00 90 1010.8
20260906080951 80 193 0.9 0.9 0.00 0.00 0.00 89 1010.9
20260906080449 80 208 1.7 1.7 0.00 0.00 0.00 89 1010.8
20260906075948 80 223 0.9 0.9 0.00 0.00 0.00 89 1010.9
20260906075443 80 243 0.9 1.7 0.00 0.00 0.00 89 1011.1
20260906074939 80 227 0.9 1.7 0.00 0.00 0.00 89 1010.9
20260906074439 80 193 0.9 0.9 0.00 0.00 0.00 89 1010.8
20260906073937 80 166 1.7 1.7 0.00 0.00 0.00 88 1011.0
20260906073432 80 214 0.9 0.9 0.00 0.00 0.00 88 1011.0
20260906072928 80 227 0.9 0.9 0.00 0.00 0.00 88 1011.1
20260906072424 80 226 0.9 1.7 0.00 0.00 0.00 88 1011.0
20260906071920 80 198 1.7 2.6 0.00 0.00 0.00 88 1010.9
20260906071415 80 230 1.7 2.6 0.00 0.00 0.00 88 1011.2
20260906070911 80 176 2.6 2.6 0.00 0.00 0.00 88 1011.0
20260906070407 80 194 0.9 0.9 0.00 0.00 0.00 88 1011.1
20260906065902 80 193 2.6 2.6 0.00 0.00 0.00 88 1010.9
20260906065356 80 214 1.7 1.7 0.00 0.00 0.00 88 1011.0
20260906064853 80 244 2.6 2.6 0.00 0.00 0.00 88 1011.0
20260906064349 80 157 2.6 3.5 0.00 0.00 0.00 88 1011.0
20260906063848 80 213 2.6 2.6 0.00 0.00 0.00 89 1011.1
20260906063344 80 209 2.6 2.6 0.00 0.00 0.00 89 1011.1
20260906062838 80 224 1.7 1.7 0.00 0.00 0.00 89 1011.0
20260906062338 80 225 1.7 1.7 0.00 0.00 0.00 89 1010.9
20260906061833 80 211 2.6 2.6 0.00 0.00 0.00 89 1011.4
20260906061330 80 217 0.9 1.7 0.00 0.00 0.00 89 1011.3
20260906060824 80 206 1.7 1.7 0.00 0.00 0.00 89 1011.2
20260906060322 80 217 1.7 1.7 0.00 0.00 0.00 88 1011.4
20260906055818 81 246 2.6 2.6 0.00 0.00 0.00 88 1011.1
20260906055313 81 204 3.5 3.5 0.00 0.00 0.00 88 1011.3
20260906054808 81 213 2.6 2.6 0.00 0.00 0.00 88 1011.5
20260906054303 81 216 1.7 1.7 0.00 0.00 0.00 88 1011.5
20260906053800 81 213 2.6 2.6 0.00 0.00 0.00 88 1011.7
20260906053255 81 209 1.7 1.7 0.00 0.00 0.00 87 1011.7
20260906052750 81 231 2.6 3.5 0.00 0.00 0.00 87 1011.7
20260906052246 81 201 1.7 1.7 0.00 0.00 0.00 88 1011.7
20260906051743 81 201 1.7 2.6 0.00 0.00 0.00 88 1011.6
20260906051243 81 220 1.7 1.7 0.00 0.00 0.00 89 1011.7
20260906050738 81 227 1.7 1.7 0.00 0.00 0.00 89 1011.7
20260906050233 81 252 2.6 2.6 0.00 0.00 0.00 89 1011.8
20260906045732 81 200 2.6 2.6 0.00 0.00 0.00 89 1011.8
20260906045227 81 235 2.6 2.6 0.00 0.00 0.00 90 1011.7
20260906044723 81 227 1.7 1.7 0.00 0.00 0.00 90 1011.6
20260906044218 81 220 1.7 1.7 0.00 0.00 0.00 90 1011.8
20260906043714 81 212 2.6 2.6 0.00 0.00 0.00 90 1011.6
20260906043210 81 232 1.7 1.7 0.00 0.00 0.00 90 1011.7
20260906042709 81 234 1.7 0.9 0.00 0.00 0.00 90 1011.6
20260906042208 81 221 0.9 0.9 0.00 0.00 0.00 90 1011.6
20260906041704 81 247 2.6 2.6 0.00 0.00 0.00 90 1011.8
20260906041205 81 215 1.7 2.6 0.00 0.00 0.00 90 1011.7
20260906040700 81 225 1.7 1.7 0.00 0.00 0.00 90 1011.7
20260906040155 81 208 1.7 1.7 0.00 0.00 0.00 90 1012.0
20260906035651 81 197 1.7 1.7 0.00 0.00 0.00 90 1012.0
20260906035147 81 227 1.7 1.7 0.00 0.00 0.00 90 1011.9
20260906034641 81 254 1.7 1.7 0.00 0.00 0.00 89 1011.8
20260906034136 81 219 1.7 1.7 0.00 0.00 0.00 89 1011.8
20260906033632 81 236 1.7 0.9 0.00 0.00 0.00 89 1012.3
20260906033132 81 211 1.7 1.7 0.00 0.00 0.00 88 1012.1
20260906032629 81 219 2.6 2.6 0.00 0.00 0.00 88 1012.3
20260906032128 81 214 2.6 2.6 0.00 0.00 0.00 88 1012.4
20260906031623 81 213 1.7 1.7 0.00 0.00 0.00 88 1012.4
20260906031119 81 208 0.9 0.9 0.00 0.00 0.00 87 1012.6
20260906030618 81 216 0.9 1.7 0.00 0.00 0.00 87 1012.5
20260906030114 81 222 1.7 1.7 0.00 0.00 0.00 87 1012.4
20260906025613 81 237 1.7 1.7 0.00 0.00 0.00 87 1012.5
20260906025112 81 232 0.0 0.0 0.00 0.00 0.00 87 1012.6
20260906024607 81 237 1.7 1.7 0.00 0.00 0.00 87 1012.4
20260906024101 81 214 1.7 1.7 0.00 0.00 0.00 87 1012.6
20260906023557 81 222 0.0 0.0 0.00 0.00 0.00 87 1012.7
20260906023051 81 225 1.7 1.7 0.00 0.00 0.00 86 1012.5
20260906022547 81 221 0.0 0.0 0.00 0.00 0.00 86 1012.5
20260906022042 81 221 0.0 0.9 0.00 0.00 0.00 86 1012.5
20260906021538 81 230 0.9 0.9 0.00 0.00 0.00 86 1012.4
20260906021037 82 230 0.9 0.9 0.00 0.00 0.00 86 1012.4
20260906020537 81 232 1.7 1.7 0.00 0.00 0.00 86 1012.2
20260906020036 81 220 0.9 1.7 0.00 0.00 0.00 87 1012.3
20260906015535 81 158 0.0 0.0 0.00 0.00 0.00 88 1012.4
20260906015029 81 158 0.0 0.0 0.00 0.00 0.00 88 1012.1
20260906014524 81 158 0.0 0.0 0.00 0.00 0.00 88 1012.3
20260906014020 81 158 0.0 0.0 0.00 0.00 0.00 87 1012.2
20260906013515 81 158 0.0 0.0 0.00 0.00 0.00 87 1012.0
20260906013011 81 158 0.0 0.0 0.00 0.00 0.00 87 1011.9
20260906012506 81 158 0.0 0.0 0.00 0.00 0.00 87 1011.7
20260906012006 81 158 0.0 0.0 0.00 0.00 0.00 87 1011.7
20260906011502 82 158 0.0 0.0 0.00 0.00 0.00 86 1011.7
20260906010956 82 158 0.0 0.0 0.00 0.00 0.00 85 1011.6
20260906010452 82 158 0.0 0.0 0.00 0.00 0.00 85 1011.5
20260906005948 82 162 0.0 0.9 0.00 0.00 0.00 85 1011.4
20260906005447 82 240 1.7 1.7 0.00 0.00 0.00 86 1011.2
20260906004946 82 239 0.0 0.0 0.00 0.00 0.00 87 1011.2
20260906004445 82 239 0.0 0.0 0.00 0.00 0.00 87 1011.4
20260906003941 82 239 0.0 0.0 0.00 0.00 0.00 86 1011.3
20260906003441 82 239 0.0 0.0 0.00 0.00 0.00 85 1011.4
20260906002937 82 239 0.0 0.0 0.00 0.00 0.00 84 1011.2
20260906002436 82 242 0.9 0.9 0.00 0.00 0.00 84 1011.2
20260906001931 83 217 1.7 0.9 0.00 0.00 0.00 84 1011.2
20260906001428 83 182 0.9 0.0 0.00 0.00 0.00 84 1011.1
20260906000922 83 199 0.0 0.0 0.00 0.00 0.00 83 1010.9
20260906000412 83 242 0.0 0.0 0.00 0.00 0.00 83 1010.9
20260905235907 83 180 0.0 0.0 0.00 0.00 0.00 83 1010.8
20260905235401 83 236 0.9 0.9 0.00 0.00 0.00 82 1010.9
20260905234856 84 230 1.7 1.7 0.00 0.00 0.00 82 1011.1
20260905234352 84 233 0.9 0.9 0.00 0.00 0.00 81 1010.9
20260905233847 84 245 0.9 1.7 0.00 0.00 0.00 80 1010.9
20260905233341 84 163 0.0 0.9 0.00 0.00 0.00 80 1011.0
20260905232841 85 171 0.9 0.9 0.00 0.00 0.00 79 1010.9
20260905232337 85 224 0.0 0.0 0.00 0.00 0.00 79 1010.9
20260905231833 85 195 0.0 0.0 0.00 0.00 0.00 78 1011.0
20260905231332 85 206 0.0 0.9 0.00 0.00 0.00 78 1010.9
20260905230829 86 217 0.0 0.0 0.00 0.00 0.00 79 1010.9
20260905230326 86 217 0.0 0.0 0.00 0.00 0.00 80 1010.8
20260905225826 86 273 0.0 0.0 0.00 0.00 0.00 79 1011.0
20260905225322 86 246 0.0 0.0 0.00 0.00 0.00 80 1011.4
20260905224821 86 247 0.0 0.0 0.00 0.00 0.00 80 1011.1
20260905224317 86 247 0.0 0.0 0.00 0.00 0.00 79 1011.2
20260905223812 87 247 0.0 0.0 0.00 0.00 0.00 79 1011.4
20260905223310 87 231 1.7 1.7 0.00 0.00 0.00 78 1011.1
20260905222804 87 209 0.9 0.9 0.00 0.00 0.00 79 1011.2
20260905222306 86 179 0.0 0.0 0.00 0.00 0.00 79 1011.5
20260905221800 87 211 0.0 0.0 0.00 0.00 0.00 79 1011.3
20260905221256 87 156 0.9 1.7 0.00 0.00 0.00 78 1011.4
20260905220752 87 217 0.0 0.9 0.00 0.00 0.00 79 1011.4
20260905220248 87 171 0.9 0.9 0.00 0.00 0.00 79 1011.4
20260905215747 87 253 0.0 0.0 0.00 0.00 0.00 80 1011.5
20260905215243 87 166 0.0 0.0 0.00 0.00 0.00 79 1011.4
20260905214738 88 164 0.9 0.9 0.00 0.00 0.00 78 1011.4
20260905214234 89 130 0.9 1.7 0.00 0.00 0.00 77 1011.7
20260905213729 91 162 0.9 0.9 0.00 0.00 0.00 74 1011.7
20260905213225 92 158 0.9 0.9 0.00 0.00 0.00 70 1011.5
20260905212720 92 204 0.9 0.9 0.00 0.00 0.00 60 1011.5
20260905212220 92 224 0.9 0.9 0.00 0.00 0.00 62 1011.7
20260905211719 91 227 0.0 0.0 0.00 0.00 0.00 63 1011.9
20260905211214 91 205 0.0 0.0 0.00 0.00 0.00 63 1011.8
20260905210712 91 216 0.9 0.9 0.00 0.00 0.00 62 1011.5
20260905210212 91 221 1.7 1.7 0.00 0.00 0.00 62 1011.5
20260905205710 92 254 2.6 2.6 0.00 0.00 0.00 62 1011.4
20260905205211 92 228 0.0 0.0 0.00 0.00 0.00 62 1011.4
20260905204710 92 166 1.7 1.7 0.00 0.00 0.00 62 1011.3
20260905204206 93 199 4.3 5.2 0.00 0.00 0.00 61 1011.2
20260905203706 93 207 4.3 5.2 0.00 0.00 0.00 59 1011.3
20260905203201 94 298 3.5 3.5 0.00 0.00 0.00 59 1011.5
20260905202657 94 182 1.7 1.7 0.00 0.00 0.00 57 1011.2
20260905202152 93 200 0.9 0.9 0.00 0.00 0.00 60 1011.2
20260905201648 92 199 1.7 1.7 0.00 0.00 0.00 60 1011.2
20260905201147 92 185 3.5 3.5 0.00 0.00 0.00 62 1011.6
20260905200642 92 252 0.9 1.7 0.00 0.00 0.00 63 1011.3
20260905200138 92 223 4.3 6.1 0.00 0.00 0.00 62 1011.2
20260905195636 92 202 2.6 2.6 0.00 0.00 0.00 63 1011.3
20260905195132 92 267 1.7 2.6 0.00 0.00 0.00 62 1011.2
20260905194632 93 201 2.6 2.6 0.00 0.00 0.00 60 1011.5
20260905194131 93 219 2.6 3.5 0.00 0.00 0.00 59 1011.3
20260905193626 93 184 3.5 3.5 0.00 0.00 0.00 60 1011.5
20260905193121 91 224 0.9 0.9 0.00 0.00 0.00 65 1011.7
20260905192617 92 245 4.3 6.1 0.00 0.00 0.00 62 1011.7
20260905192113 92 213 0.9 1.7 0.00 0.00 0.00 63 1011.9
20260905191612 92 287 3.5 3.5 0.00 0.00 0.00 63 1012.1
20260905191110 92 226 2.6 2.6 0.00 0.00 0.00 63 1012.1
20260905190609 92 225 3.5 3.5 0.00 0.00 0.00 64 1012.0
20260905185602 91 173 2.6 2.6 0.00 0.00 0.00 62 1012.1
20260905185102 91 265 0.9 0.9 0.00 0.00 0.00 64 1012.0
20260905184556 92 265 1.7 1.7 0.00 0.00 0.00 61 1012.2
20260905184056 92 224 1.7 2.6 0.00 0.00 0.00 62 1012.2
20260905183555 91 246 0.9 1.7 0.00 0.00 0.00 63 1012.2
20260905183050 90 317 3.5 3.5 0.00 0.00 0.00 64 1012.3
20260905182544 90 256 1.7 1.7 0.00 0.00 0.00 69 1012.5
20260905182045 90 221 0.9 0.9 0.00 0.00 0.00 68 1012.6
20260905181544 90 207 0.0 0.9 0.00 0.00 0.00 67 1012.7
20260905181039 89 286 2.6 1.7 0.00 0.00 0.00 66 1012.7
20260905180539 89 290 3.5 3.5 0.00 0.00 0.00 69 1012.8
20260905180034 89 321 1.7 3.5 0.00 0.00 0.00 70 1012.7
20260905175533 90 325 3.5 5.2 0.00 0.00 0.00 68 1012.9
20260905175024 91 174 1.7 1.7 0.00 0.00 0.00 68 1012.9
20260905174519 91 180 0.9 0.9 0.00 0.00 0.00 68 1013.1
20260905174015 91 191 4.3 6.1 0.00 0.00 0.00 67 1013.1
20260905173511 91 250 3.5 5.2 0.00 0.00 0.00 66 1013.1
20260905173006 90 287 1.7 2.6 0.00 0.00 0.00 67 1013.2
20260905172504 91 310 4.3 5.2 0.00 0.00 0.00 69 1013.2
20260905171959 90 221 0.0 0.0 0.00 0.00 0.00 68 1013.0
20260905171455 89 189 6.1 7.0 0.00 0.00 0.00 69 1013.3
20260905170951 89 264 1.7 1.7 0.00 0.00 0.00 71 1013.4
20260905170448 88 324 2.6 2.6 0.00 0.00 0.00 73 1013.3
20260905165942 88 327 3.5 3.5 0.00 0.00 0.00 72 1013.7
20260905165437 89 314 2.6 3.5 0.00 0.00 0.00 71 1013.7
20260905164932 89 331 3.5 3.5 0.00 0.00 0.00 70 1013.8
20260905164432 87 189 1.7 2.6 0.00 0.00 0.00 72 1014.1
20260905163926 87 328 5.2 6.1 0.00 0.00 0.00 73 1014.1
20260905163423 87 171 1.7 2.6 0.00 0.00 0.00 74 1014.4
20260905162919 88 349 3.5 5.2 0.00 0.00 0.00 74 1014.3
20260905162414 88 189 3.5 5.2 0.00 0.00 0.00 73 1014.1
20260905161908 86 191 2.6 2.6 0.00 0.00 0.00 76 1014.4
20260905161408 86 321 3.5 3.5 0.00 0.00 0.00 78 1014.4
20260905160906 87 331 3.5 3.5 0.00 0.00 0.00 76 1014.6
20260905160400 87 298 1.7 1.7 0.00 0.00 0.00 77 1014.7
20260905155855 85 184 1.7 1.7 0.00 0.00 0.00 79 1014.8
20260905155354 85 291 1.7 1.7 0.00 0.00 0.00 81 1014.9
20260905154853 86 309 2.6 2.6 0.00 0.00 0.00 80 1014.8
20260905154349 85 246 2.6 2.6 0.00 0.00 0.00 80 1015.1
20260905153844 84 221 1.7 1.7 0.00 0.00 0.00 83 1015.0
20260905153341 84 307 1.7 1.7 0.00 0.00 0.00 82 1015.0
20260905152840 85 204 5.2 7.0 0.00 0.00 0.00 82 1015.2
20260905152340 84 210 1.7 1.7 0.00 0.00 0.00 83 1015.0
20260905151835 84 253 4.3 6.1 0.00 0.00 0.00 82 1015.0
20260905151331 84 290 1.7 1.7 0.00 0.00 0.00 84 1015.1
20260905150830 83 230 2.6 2.6 0.00 0.00 0.00 85 1015.1
20260905150325 84 217 4.3 6.1 0.00 0.00 0.00 84 1014.9
20260905145823 84 262 0.9 0.9 0.00 0.00 0.00 84 1015.0
20260905145322 84 225 0.9 0.9 0.00 0.00 0.00 85 1014.9
20260905144821 84 217 0.9 0.9 0.00 0.00 0.00 86 1015.0
20260905144317 84 235 0.0 0.0 0.00 0.00 0.00 86 1014.9
20260905143816 83 217 1.7 1.7 0.00 0.00 0.00 85 1015.1
20260905143310 83 283 0.9 1.7 0.00 0.00 0.00 87 1015.0
20260905142809 82 217 1.7 1.7 0.00 0.00 0.00 88 1014.7
20260905142305 82 211 1.7 1.7 0.00 0.00 0.00 87 1014.9
20260905141800 82 200 0.9 0.9 0.00 0.00 0.00 88 1014.8
20260905141255 81 183 0.9 1.7 0.00 0.00 0.00 91 1015.0
20260905140751 81 275 1.7 1.7 0.00 0.00 0.00 91 1015.0
20260905140250 80 206 0.0 0.0 0.00 0.00 0.00 92 1015.0
20260905135749 80 207 0.9 0.9 0.00 0.00 0.00 92 1015.0
20260905135246 80 179 0.0 0.0 0.00 0.00 0.00 93 1015.0
20260905134745 79 173 0.0 0.0 0.00 0.00 0.00 93 1014.8
20260905134244 79 213 2.6 2.6 0.00 0.00 0.00 93 1015.0